Triuchirapalli, India

11:08 AM IST on September 21, 2017 (GMT +0530)
Tiruchirappalli

Weather History for VOTR - September, 2012

Change the Weather History Date:

Saturday, September 15, 2012

  Actual Average Record
Temperature  
Mean Temperature 87 °F -  
Max Temperature 96 °F 88 °F 101 °F (2014)
Min Temperature 78 °F 77 °F 75 °F (2002)
Cooling Degree Days 22    
Growing Degree Days 37 (Base 50)    
Moisture  
Dew Point 72 °F    
Average Humidity 66    
Maximum Humidity 89    
Minimum Humidity 33    
Precipitation  
Precipitation 0.08 in - - ()
Sea Level Pressure  
Sea Level Pressure 29.75 in    
Wind  
Wind Speed 7 mph ()    
Max Wind Speed 13 mph    
Max Gust Speed -    
Visibility 3.7 miles    
Events Rain , Thunderstorm    
Averages and records for this station are not official NWS values.
T = Trace of Precipitation, MM = Missing Value Source: Averaged Metar Reports

Daily Weather History Graph

Daily Weather History Graph

Search for Another Location

Airport or City:

Trip Planner

Search our weather history database for the weather conditions in past years. The results will help you decide how hot, cold, wet, or windy it might be!

Date:

Astronomy

Sep. 15, 2012 Rise Set
Actual Time 6:04 AM IST 6:15 PM IST
Civil Twilight 5:43 AM IST 6:36 PM IST
Nautical Twilight 5:19 AM IST 7:01 PM IST
Astronomical Twilight 4:54 AM IST 7:25 PM IST
Moon 5:06 AM IST (9/15) 5:34 PM IST (9/15)
Length of Visible Light 12h 53m
Length of Day
12h 10m
Waning Crescent, 1% of the Moon is Illuminated
Sep 15
Waning Crescent
Sep 16
New
Sep 23
First Quarter
Sep 30
Full
Oct 8
Last Quarter

Hourly Weather History & Observations

Time (IST) Temp. Heat Index Dew Point Humidity Pressure Visibility Wind Dir Wind Speed Gust Speed Precip Events Conditions
12:10 AM 80.6 °F 85.4 °F 73.4 °F 79% 29.80 in 3.7 mi West 4.6 mph - N/A   Mostly Cloudy
12:40 AM 80.6 °F 85.4 °F 73.4 °F 79% 29.80 in 3.7 mi West 3.5 mph - N/A   Mostly Cloudy
1:10 AM 80.6 °F 84.6 °F 71.6 °F 74% 29.77 in 3.7 mi WNW 9.2 mph - N/A   Mostly Cloudy
1:40 AM 80.6 °F 84.6 °F 71.6 °F 74% 29.77 in 3.7 mi WNW 9.2 mph - N/A   Scattered Clouds
2:10 AM 80.6 °F 83.9 °F 69.8 °F 70% 29.77 in 3.7 mi West 12.7 mph - N/A   Scattered Clouds
2:30 AM 81 °F - 73 °F 72% 29.75 in 2 mi WNW 11.5 mph - -   Haze
2:40 AM 80.6 °F 83.9 °F 69.8 °F 70% 29.74 in 3.7 mi WNW 11.5 mph - N/A   Partly Cloudy
3:10 AM 80.6 °F 83.9 °F 69.8 °F 70% 29.74 in 3.7 mi West 8.1 mph - N/A   Partly Cloudy
3:40 AM 80.6 °F 83.9 °F 69.8 °F 70% 29.74 in 3.7 mi WNW 9.2 mph - N/A   Partly Cloudy
4:10 AM 80.6 °F 83.9 °F 69.8 °F 70% 29.74 in 3.7 mi West 11.5 mph - N/A   Partly Cloudy
5:10 AM 80.6 °F 83.9 °F 69.8 °F 70% 29.74 in 3.7 mi West 6.9 mph - N/A   Scattered Clouds
5:30 AM 80 °F - 69 °F 62% 29.75 in 2 mi WNW 6.9 mph - -   Haze
6:10 AM 80.6 °F 83.9 °F 69.8 °F 70% 29.77 in 3.7 mi West 4.6 mph - N/A   Mostly Cloudy
7:10 AM 80.6 °F 84.6 °F 71.6 °F 74% 29.77 in 3.7 mi West 5.8 mph - N/A   Scattered Clouds
7:40 AM 82.4 °F 87.2 °F 71.6 °F 70% 29.80 in 3.7 mi West 9.2 mph - N/A   Scattered Clouds
8:10 AM 82.4 °F 87.2 °F 71.6 °F 70% 29.80 in 3.7 mi West 12.7 mph - N/A   Scattered Clouds
8:30 AM 85 °F - 71 °F 53% 29.78 in 2 mi West 10.4 mph - -   Haze
8:40 AM 84.2 °F 89.6 °F 71.6 °F 66% 29.80 in 3.7 mi WSW 9.2 mph - N/A   Scattered Clouds
9:10 AM 86.0 °F 91.8 °F 71.6 °F 62% 29.80 in 3.7 mi West 10.4 mph - N/A   Scattered Clouds
9:40 AM 86.0 °F 91.8 °F 71.6 °F 62% 29.80 in 5.0 mi WSW 12.7 mph - N/A   Mostly Cloudy
10:10 AM 87.8 °F 93.8 °F 71.6 °F 58% 29.80 in 5.0 mi West 10.4 mph - N/A   Mostly Cloudy
10:40 AM 87.8 °F 93.8 °F 71.6 °F 58% 29.77 in 5.0 mi WSW 8.1 mph - N/A   Mostly Cloudy
11:10 AM 89.6 °F 96.2 °F 71.6 °F 55% 29.77 in 5.0 mi WSW 6.9 mph - N/A   Mostly Cloudy
11:30 AM 94 °F - 69 °F 34% 29.78 in 2 mi SW 9.2 mph - -   Haze
11:40 AM 91.4 °F 100.1 °F 73.4 °F 55% 29.77 in 5.0 mi SSW 4.6 mph - N/A   Mostly Cloudy
12:10 PM 93.2 °F 98.8 °F 69.8 °F 46% 29.74 in 6.2 mi SW 9.2 mph - N/A   Mostly Cloudy
12:40 PM 95.0 °F 103.2 °F 71.6 °F 47% 29.74 in 6.2 mi WSW 4.6 mph - N/A   Mostly Cloudy
1:10 PM 96.8 °F 105.1 °F 71.6 °F 44% 29.71 in 6.2 mi South 4.6 mph - N/A   Mostly Cloudy
1:40 PM 96.8 °F 103.1 °F 69.8 °F 41% 29.71 in 6.2 mi SW 2.3 mph - N/A   Mostly Cloudy
2:10 PM 95.0 °F 101.3 °F 69.8 °F 44% 29.68 in 6.2 mi Variable 2.3 mph - N/A   Mostly Cloudy
2:30 PM 96 °F - 70 °F 33% 29.68 in 2 mi SW 3.5 mph - -   Partly Cloudy
2:40 PM 95.0 °F 101.3 °F 69.8 °F 44% 29.68 in 5.0 mi SW 3.5 mph - N/A   Mostly Cloudy
3:10 PM 95.0 °F 101.3 °F 69.8 °F 44% 29.68 in 5.0 mi Variable 2.3 mph - N/A   Mostly Cloudy
4:10 PM 87.8 °F 95.6 °F 73.4 °F 62% 29.68 in 3.1 mi South 6.9 mph - N/A   Light Drizzle
4:40 PM 84.2 °F 92.3 °F 75.2 °F 74% 29.68 in 1.9 mi SSW 8.1 mph - N/A Rain , Thunderstorm Thunderstorms and Rain
5:30 PM 82 °F - 78 °F 83% 29.68 in 2 mi WSW 6.9 mph - - Rain , Thunderstorm Thunderstorms and Rain
6:10 PM 84.2 °F 92.3 °F 75.2 °F 74% 29.71 in 3.1 mi West 10.4 mph - N/A   Haze
7:10 PM 80.6 °F 86.2 °F 75.2 °F 84% 29.77 in 3.1 mi SSW 9.2 mph - N/A Rain , Thunderstorm Light Thunderstorms and Rain
8:10 PM 78.8 °F - 75.2 °F 89% 29.77 in 3.1 mi SW 4.6 mph - N/A   Light Drizzle
8:30 PM 79 °F - 74 °F 79% 29.78 in 2 mi SW 3.5 mph - - Rain Light Drizzle
8:40 PM 78.8 °F - 73.4 °F 83% 29.77 in 3.7 mi SW 3.5 mph - N/A   Mostly Cloudy
9:10 PM 78.8 °F - 73.4 °F 83% 29.77 in 3.7 mi South 2.3 mph - N/A   Mostly Cloudy
9:40 PM 78.8 °F - 75.2 °F 89% 29.77 in 3.7 mi WSW 3.5 mph - N/A   Mostly Cloudy
10:40 PM 80.6 °F 85.4 °F 73.4 °F 79% 29.80 in 3.1 mi West 5.8 mph - N/A   Light Drizzle
11:10 PM 80.6 °F 86.2 °F 75.2 °F 84% 29.80 in 3.1 mi West 10.4 mph - N/A   Light Drizzle
11:30 PM 82 °F - 69 °F 56% 29.76 in 2 mi West 10.4 mph - -   Haze
11:40 PM 82.4 °F 88.2 °F 73.4 °F 74% 29.80 in 3.1 mi West 9.2 mph - N/A   Haze